Regional Weather Roundup
Issued by NWS

Home | Current Version | Previous Version | Graphics & Text | Print | Product List | Glossary On
Versions: 1 2 3 4 5 6 7 8 9 10 11 12 13 14 15 16 17 18 19 20 21 22 23 24 25 26 27 28 29 30 31 32 33 34 35 36 37 38 39 40 41 42 43 44 45 46 47 48 49 50
000
ASUS43 KOAX 271410
RWRNE

WEATHER ROUNDUP FOR NEBRASKA
NATIONAL WEATHER SERVICE OMAHA NE
900 AM CDT THU JUL 27 2017

NOTES: SATELLITE DATA IS BEING USED TO AUGMENT CLOUD COVER ABOVE
       12000 FEET.
       "FAIR" INDICATES FEW OR NO CLOUDS BELOW 12,000 FEET WITH NO
       SIGNIFICANT WEATHER AND/OR OBSTRUCTIONS TO VISIBILITY.


NEZ001>004-019>022-054>056-271500-
NEBRASKA PANHANDLE

CITY           SKY/WX    TMP DP  RH WIND       PRES   REMARKS
SCOTTSBLUFF    MOSUNNY   70  66  87 SE16      30.19S
ALLIANCE       CLOUDY    68  60  75 SE15      30.21R
CHADRON        CLOUDY    71  64  78 SE16      30.15S
GORDON         LGT RAIN  65  58  78 S9        30.20F
KIMBALL        CLOUDY    67  65  93 SE15G21   30.25S
SIDNEY         CLOUDY    68  65  90 SE12      30.24R
$$

NEZ057>060-069>072-079>082-271500-
SOUTHWEST NEBRASKA

CITY           SKY/WX    TMP DP  RH WIND       PRES   REMARKS
NORTH PLATTE   CLOUDY    70  61  73 E7        30.18S
IMPERIAL       CLOUDY    69  64  84 E8        30.19R
LEXINGTON      CLOUDY    68  62  81 E5        30.17R
MCCOOK         CLOUDY    70  66  87 E13       30.16S
OGALLALA       CLOUDY    69  63  82 E8        30.20S
$$

NEZ005>010-023>029-035>040-094-271500-
NORTH CENTRAL NEBRASKA

CITY           SKY/WX    TMP DP  RH WIND       PRES   REMARKS
VALENTINE      CLOUDY    72  57  59 S5        30.18R
AINSWORTH      SUNNY     68  61  77 SE6       30.19R
BROKEN BOW     SUNNY     70  61  73 E8        30.17R
O`NEILL        SUNNY     70  64  81 CALM      30.17R
ORD            SUNNY     70  62  76 N5        30.14S
THEDFORD       SUNNY     69  61  76 SE5       30.21R
$$

NEZ041-046>049-061>064-073>077-083>087-271500-
SOUTH CENTRAL NEBRASKA

CITY           SKY/WX    TMP DP  RH WIND       PRES   REMARKS
GRAND ISLAND   SUNNY     70  65  84 E9        30.13S
AURORA         SUNNY     70  66  86 NE6       30.12S
HASTINGS       MOSUNNY   70  63  78 NE8       30.14R
HEBRON         CLOUDY    75  69  79 NE9       30.08R
HOLDREGE       CLOUDY    67  62  85 NE7       30.15S
KEARNEY        CLOUDY    70  63  78 NE12      30.15R
YORK           MOSUNNY   70  66  88 NE8       30.11S
$$

NEZ011>018-030>034-042>045-271500-
NORTHEAST NEBRASKA

CITY           SKY/WX    TMP DP  RH WIND       PRES   REMARKS
NORFOLK        SUNNY     72  61  68 NE8       30.12R
ALBION         SUNNY     71  64  77 NE6       30.13S
BLAIR          RAIN      71  65  83 N9        30.08R
COLUMBUS       SUNNY     72  64  76 N8        30.11S
FREMONT        SUNNY     71  65  79 CALM      30.10R
TEKAMAH        SUNNY     71  64  78 N9        30.08R
WAYNE          SUNNY     70  69  98 NE7       30.11S
$$

NEZ050>053-065>068-078-088>093-271500-
SOUTHEAST NEBRASKA

CITY           SKY/WX    TMP DP  RH WIND       PRES   REMARKS
LINCOLN        SUNNY     73  65  75 NE13      30.07S
OMAHA EPPLEY   MOSUNNY   72  65  78 N9        30.06R
BEATRICE       SUNNY     74  68  81 NE8       30.07R
FALLS CITY     CLOUDY    76  71  85 NE8       30.02R
NEBRASKA CITY  SUNNY     73  73 100 NE7       30.04S
PLATTSMOUTH    SUNNY     72  66  81 N7        30.06R
$$

NEZ044-045-051>053-067-271500-
OMAHA AREA

CITY           SKY/WX    TMP DP  RH WIND       PRES   REMARKS
OMAHA EPPLEY   MOSUNNY   72  65  78 N9        30.06R
BLAIR          RAIN      71  65  83 N9        30.08R
FREMONT        SUNNY     71  65  79 CALM      30.10R
MILLARD        SUNNY     74  67  76 N3        30.07S
OFFUTT AFB     SUNNY     73  65  77 N9        30.05R
PLATTSMOUTH    SUNNY     72  66  81 N7        30.06R
WAHOO          FAIR      71  67  88 N8        30.08S
$$



USA.gov is the U.S. government's official web portal to all federal, state and local government web resources and services.